Location: Moulis
(42.9609°N, 1.0909°E)
Time: 15:25:56
(UTC+00:00)

Cosmos 2098 Rocket - Pass Details

Date: 11 December 2025
Orbit: 349 x 864 km, 82.9° (Epoch: 19 January)

Event Time Altitude Azimuth Distance (km) Brightness Sun altitude
Rises 17:21:36 0° 203° (SSW) 2,647 7.0 -10.7°
Reaches altitude 10° 17:23:38 10° 209° (SSW) 1,843 6.3 -11.1°
Maximum altitude 17:27:35 45° 284° (WNW) 854 4.2 -11.8°
Drops below altitude 10° 17:32:13 10° 357° (N) 2,179 5.7 -12.6°
Sets 17:34:50 0° 3° (N) 3,191 6.5 -13.0°
